{"data":{"norad_id":66322,"epoch":"2026-09-20T12:29:35.734272Z","epoch_age_seconds":94883,"freshness":"FRESH","line1":"1 66322U 25253D   26263.52055248  .00003398  00000+0  13287-3 0  9992","line2":"2 66322  43.0018 192.0134 0001429 269.3924  90.6764 15.27595262 50043","mean_motion":15.27595262,"eccentricity":0.0001429,"inclination_deg":43.0018,"raan_deg":192.0134,"arg_perigee_deg":269.3924,"mean_anomaly_deg":90.6764,"bstar":0.00013287,"rev_number":5004,"period_min":94.26580690717,"perigee_km":482.022939539,"apogee_km":483.98385346432,"semimajor_km":6861.1403965017,"source":"CELESTRAK","updated_at":"2026-09-21T09:00:35.873359Z"}}